Tracking 27107 objects as of 22-Mar-2023
HD Live streaming from Space Station
objects crossing your sky now

OPTUS B1 R/B(STAR 63F)

Track OPTUS B1 R/B(STAR 63F) now!


NORAD ID: 22089
Int'l Code: 1992-054C
Perigee: 432.8 km
Apogee: 36,317.1 km
Inclination: 23.3 °
Period: 645.7 minutes
Semi major axis: 24745 km
RCS: 6.8742 m2 (large)
Launch date: August 13, 1992
Source: Australia (AUS)
Launch site: Xichang Space Center, China (XSC)

Note: This is a ROCKET BODY
Your satellite tracking list
Your tracking list is empty




NASA's NSSDC Master Catalog

Two Line Element Set (TLE):
1 22089U 92054C   23079.93484088 -.00000053  00000-0  47485-3 0  9996
2 22089  23.2672 280.6593 7250532 304.2387   6.8465  2.23021231246422
Source of the keplerian elements: AFSPC